This demonstration page uses our WeatherBlox Daily Observations layout. Learn more.

Left ArrowRight Arrow

34.74481, -87.66753

Hourly Observations for July 27, 2020

Temp ( °F °C ) Dew Point ( °F °C ) Humidity (%) Winds ( mph kmh ) Pressure ( in mb ) Visibility ( mi km ) Precip ( " mm )
12:53 am 00:53 Clear 77 25 73 22.8 88 88 Calm 30.06 1018 10 16 0.00 0.00
1:53 am 01:53 Clear 77 25 72 22.2 85 85 Calm 30.06 1018 10 16 0.00 0.00
2:53 am 02:53 Clear 76 24.4 72 22.2 88 88 Calm 30.06 1018 10 16 0.00 0.00
3:53 am 03:53 Clear 76 24.4 72 22.2 88 88 S 5 7 30.06 1018 10 16 0.00 0.00
4:53 am 04:53 Clear 75 23.9 72 22.2 90 90 Calm 30.06 1018 10 16 0.00 0.00
5:53 am 05:53 Clear 74 23.3 71 21.7 91 91 SSE 3 6 30.07 1018 10 16 0.00 0.00
6:53 am 06:53 Sunny 76 24.4 72 22.2 88 88 Calm 30.08 1019 10 16 0.00 0.00
7:53 am 07:53 Sunny 80 26.7 73 22.8 79 79 SSW 3 6 30.09 1019 10 16 0.00 0.00
8:53 am 08:53 Sunny 84 28.9 74 23.3 72 72 W 3 6 30.09 1019 10 16 0.00 0.00
9:53 am 09:53 Sunny 88 31.1 73 22.8 61 61 VRB 3 6 30.07 1018 10 16 0.00 0.00
10:53 am 10:53 Partly Cloudy 89 31.7 70 21.1 53 53 WNW 7 11 30.07 1018 10 16 0.00 0.00
11:53 am 11:53 Mostly Cloudy 88 31.1 70 21.1 55 55 NW 5 7 30.07 1018 10 16 0.00 0.00
12:53 pm 12:53 Cloudy 89 31.7 72 22.2 57 57 NNW 3 6 30.05 1018 10 16 0.00 0.00
1:53 pm 13:53 Cloudy with Light Rain 83 28.3 75 23.9 77 77 SSW 9 15 30.03 1017 9 14 0.00 0.00
2:53 pm 14:53 Mostly Cloudy 86 30 71 21.7 61 61 SSE 9 15 30.00 1016 10 16 0.00 0.00
3:53 pm 15:53 Mostly Cloudy 90 32.2 71 21.7 54 54 S 7 11 29.98 1015 10 16 0.00 0.00
4:53 pm 16:53 Sunny 91 32.8 70 21.1 50 50 S 8 13 29.98 1015 10 16 0.00 0.00
5:53 pm 17:53 Sunny 89 31.7 71 21.7 55 55 SSW 8 13 29.97 1015 10 16 0.00 0.00
6:53 pm 18:53 Sunny 88 31.1 73 22.8 61 61 SW 9 15 29.96 1015 10 16 0.00 0.00
7:53 pm 19:53 Sunny 84 28.9 70 21.1 63 63 WSW 7 11 29.98 1015 10 16 0.00 0.00
8:53 pm 20:53 Clear 82 27.8 71 21.7 69 69 WSW 3 6 29.98 1015 10 16 0.00 0.00
9:53 pm 21:53 Clear 80 26.7 72 22.2 76 76 SSW 3 6 30.00 1016 10 16 0.00 0.00
10:53 pm 22:53 Clear 79 26.1 73 22.8 82 82 Calm 30.00 1016 10 16 0.00 0.00
11:53 pm 23:53 Clear 78 25.6 73 22.8 85 85 S 3 6 30.00 1016 10 16 0.00 0.00

Powered by AerisWeather